BRICSAT2 (NO-103) (44355 NORAD) Tracking and Keplerian Element Data

This shows tracking and keplerian element data for the satellite.

Feedback or suggestion? Click here.




ElementValue
Catalog44355
NameBRICSAT2 (NO-103)
Epoch Orbit1750
Epoch Day293.01357625
Epoch Year2019
RAAN160.1523
Inclination28.5336
Eccentricity0.0376522
Argument of Perigee262.4268
Mean Anonmoly93.3407
Mean Motion15.00270472
Decay Rate0.00011384
L11 44355U 19036S 19293.01357625 .00011384 00000-0 17128-3 0 9992
L22 44355 28.5336 160.1523 0376522 262.4268 93.3407 15.00270472 17500

Live tracking and technical data element details for BRICSAT2 (NO-103) (NORAD 44355). BRICSAT2 (NO-103) can be tracked NOW for your location showing map with azimuth and elevation plus other details from your city location.

Track the satellite on the map from your city or location and see movement details for azimuth, elevation, latitude, longitude, range, height, and movement on the map or in text.







IsCatalogInMostPopularTable: catalog: 44355, numindb: 21
Update: records affected: 1



GetName: 44355 BRICSAT2 (NO-103)

Hit Count: updated at: Wed, 23 Oct 2019 00:35:42 GMT